Fort Campbell, KY

10:02 AM CDT on September 20, 2017 (GMT -0500)
Campbell Army Air Field

Weather History for KHOP - November, 2012

Change the Weather History Date:

Thursday, November 8, 2012

  Actual Average Record
Temperature  
Mean Temperature 44 °F -  
Max Temperature 56 °F 58 °F 80 °F (2005)
Min Temperature 32 °F 39 °F 30 °F (2013)
Degree Days  
Heating Degree Days 21    
Moisture  
Dew Point 37 °F    
Average Humidity 94    
Maximum Humidity 100    
Minimum Humidity 51    
Precipitation  
Precipitation 0.00 in - - ()
Sea Level Pressure  
Sea Level Pressure 30.24 in    
Wind  
Wind Speed 1 mph (ENE)    
Max Wind Speed 5 mph    
Max Gust Speed -    
Visibility 4 miles    
Events Fog    
Averages and records for this station are not official NWS values.
T = Trace of Precipitation, MM = Missing Value Source: NWS Daily Summary

Daily Weather History Graph

Daily Weather History Graph

Search for Another Location

Airport or City:

Trip Planner

Search our weather history database for the weather conditions in past years. The results will help you decide how hot, cold, wet, or windy it might be!

Date:

Astronomy

Nov. 08, 2012 Rise Set
Actual Time 6:21 AM CST 4:45 PM CST
Civil Twilight 5:53 AM CST 5:13 PM CST
Nautical Twilight 5:23 AM CST 5:43 PM CST
Astronomical Twilight 4:52 AM CST 6:14 PM CST
Moon 12:25 AM CST (11/8) 1:18 PM CST (11/8)
Length of Visible Light 11h 19m
Length of Day
10h 24m
Waning Crescent, 32% of the Moon is Illuminated
Nov 8
Waning Crescent
Nov 13
New
Nov 20
First Quarter
Nov 28
Full
Dec 6
Last Quarter

Hourly Weather History & Observations

Time (CST) Temp. Windchill Dew Point Humidity Pressure Visibility Wind Dir Wind Speed Gust Speed Precip Events Conditions
12:55 AM 43.0 °F 41.3 °F 42.1 °F 97% 30.17 in 10.0 mi NW 3.5 mph - N/A   Partly Cloudy
1:55 AM 41.2 °F - 41.2 °F 100% 30.19 in 10.0 mi Calm Calm - N/A   Clear
2:55 AM 40.6 °F - 40.6 °F 100% 30.20 in 10.0 mi Calm Calm - N/A   Clear
3:34 AM 39.2 °F - 39.2 °F 100% 30.21 in 2.5 mi Calm Calm - N/A   Clear
3:36 AM 37.4 °F - 37.4 °F 100% 30.22 in 1.8 mi Calm Calm - N/A   Clear
3:45 AM 37.4 °F - 37.4 °F 100% 30.22 in 3.0 mi Calm Calm - N/A   Clear
3:55 AM 37.4 °F - 37.4 °F 100% 30.22 in 6.0 mi Calm Calm - N/A   Clear
4:19 AM 37.4 °F - 37.4 °F 100% 30.23 in 2.5 mi Calm Calm - N/A   Clear
4:21 AM 37.4 °F - 37.4 °F 100% 30.23 in 1.8 mi Calm Calm - N/A   Clear
4:29 AM 37.4 °F - 37.4 °F 100% 30.23 in 2.0 mi Calm Calm - N/A   Clear
4:31 AM 37.4 °F - 37.4 °F 100% 30.23 in 3.0 mi Calm Calm - N/A   Clear
4:51 AM 37.4 °F - 37.4 °F 100% 30.23 in 2.5 mi Calm Calm - N/A   Clear
4:53 AM 37.4 °F - 37.4 °F 100% 30.23 in 1.8 mi Calm Calm - N/A   Clear
4:55 AM 36.7 °F - 36.7 °F 100% 30.23 in 1.2 mi Calm Calm - N/A   Clear
4:58 AM 37.4 °F - 37.4 °F 100% 30.23 in 1.0 mi Calm Calm - N/A   Clear
5:00 AM 37.4 °F - 37.4 °F 100% 30.23 in 0.8 mi Calm Calm - N/A   Clear
5:08 AM 37.4 °F - 37.4 °F 100% 30.23 in 0.8 mi Calm Calm - N/A   Clear
5:12 AM 35.6 °F - 35.6 °F 100% 30.23 in 0.5 mi Calm Calm - N/A Fog Fog
5:15 AM 35.6 °F - 35.6 °F 100% 30.23 in 0.5 mi Calm Calm - N/A Fog Fog
5:16 AM 35.6 °F - 35.6 °F 100% 30.23 in 0.2 mi Calm Calm - N/A Fog Fog
5:20 AM 33.8 °F - 33.8 °F 100% 30.24 in 0.2 mi Calm Calm - N/A Fog Fog
5:21 AM 33.8 °F - 33.8 °F 100% 30.24 in 0.5 mi Calm Calm - N/A Fog Fog
5:26 AM 33.8 °F - 33.8 °F 100% 30.24 in 0.8 mi Calm Calm - N/A   Clear
5:30 AM 33.8 °F - 33.8 °F 100% 30.24 in 0.5 mi Calm Calm - N/A Fog Fog
5:31 AM 33.8 °F - 33.8 °F 100% 30.24 in 0.5 mi Calm Calm - N/A Fog Fog
5:38 AM 35.6 °F - 35.6 °F 100% 30.24 in 0.5 mi Calm Calm - N/A Fog Fog
5:41 AM 35.6 °F - 35.6 °F 100% 30.24 in 0.8 mi Calm Calm - N/A   Clear
5:46 AM 35.6 °F - 35.6 °F 100% 30.25 in 4.0 mi Calm Calm - N/A   Clear
5:49 AM 35.6 °F - 35.6 °F 100% 30.25 in 2.5 mi Calm Calm - N/A   Clear
5:55 AM 34.3 °F - 34.3 °F 100% 30.25 in 0.8 mi Calm Calm - N/A   Clear
5:57 AM 33.8 °F - 33.8 °F 100% 30.25 in 0.5 mi Calm Calm - N/A Fog Fog
6:00 AM 33.8 °F - 33.8 °F 100% 30.25 in 0.2 mi Calm Calm - N/A Fog Fog
6:01 AM 33.8 °F - 33.8 °F 100% 30.25 in 0.2 mi Calm Calm - N/A Fog Fog
6:05 AM 33.8 °F - 33.8 °F 100% 30.25 in 0.2 mi Calm Calm - N/A Fog Fog
6:32 AM 33.8 °F - 33.8 °F 100% 30.25 in 0.2 mi Calm Calm - N/A Fog Fog
6:34 AM 33.8 °F - 33.8 °F 100% 30.25 in 0.2 mi Calm Calm - N/A Fog Fog
6:39 AM 33.8 °F - 33.8 °F 100% 30.25 in 0.5 mi Calm Calm - N/A Fog Fog
6:44 AM 33.8 °F - 33.8 °F 100% 30.26 in 0.5 mi Calm Calm - N/A Fog Fog
6:46 AM 33.8 °F - 33.8 °F 100% 30.26 in 0.2 mi Calm Calm - N/A Fog Fog
6:48 AM 33.8 °F - 33.8 °F 100% 30.26 in 0.2 mi Calm Calm - N/A Fog Fog
6:53 AM 33.8 °F - 33.8 °F 100% 30.26 in 0.2 mi Calm Calm - N/A Fog Fog
6:55 AM 34.0 °F - 34.0 °F 100% 30.26 in 0.2 mi Calm Calm - N/A Fog Fog
7:23 AM 32.0 °F - 32.0 °F 100% 30.27 in 0.2 mi Calm Calm - N/A Fog Fog
7:38 AM 33.8 °F - 33.8 °F 100% 30.27 in 0.5 mi Calm Calm - N/A Fog Fog
7:40 AM 33.8 °F - 33.8 °F 100% 30.27 in 0.5 mi Calm Calm - N/A Fog Fog
7:52 AM 37.4 °F - 37.4 °F 100% 30.27 in 0.5 mi Calm Calm - N/A Fog Fog
7:55 AM 37.8 °F - 37.8 °F 100% 30.27 in 0.8 mi Calm Calm - N/A   Clear
7:57 AM 37.4 °F - 37.4 °F 100% 30.27 in 1.0 mi Calm Calm - N/A   Mist
7:58 AM 37.4 °F - 37.4 °F 100% 30.27 in 1.2 mi Calm Calm - N/A   Partly Cloudy
8:00 AM 37.4 °F - 37.4 °F 100% 30.27 in 3.0 mi Calm Calm - N/A   Partly Cloudy
8:55 AM 44.1 °F - 44.1 °F 100% 30.28 in 8.0 mi Calm Calm - N/A   Clear
9:55 AM 48.9 °F - 42.6 °F 79% 30.29 in 10.0 mi East 4.6 mph - N/A   Clear
10:55 AM 51.4 °F - 39.2 °F 63% 30.28 in 10.0 mi Calm Calm - N/A   Clear
11:55 AM 54.9 °F - 38.7 °F 54% 30.25 in 10.0 mi Variable 3.5 mph - N/A   Scattered Clouds
12:55 PM 54.3 °F - 39.0 °F 56% 30.22 in 10.0 mi Variable 4.6 mph - N/A   Partly Cloudy
1:55 PM 56.8 °F - 38.8 °F 51% 30.21 in 10.0 mi Calm Calm - N/A   Clear
2:55 PM 55.4 °F - 39.0 °F 54% 30.21 in 10.0 mi Calm Calm - N/A   Clear
3:55 PM 54.7 °F - 39.4 °F 56% 30.20 in 10.0 mi Calm Calm - N/A   Clear
4:55 PM 49.3 °F - 38.7 °F 67% 30.19 in 10.0 mi East 4.6 mph - N/A   Clear
5:55 PM 48.4 °F - 38.8 °F 70% 30.20 in 10.0 mi Calm Calm - N/A   Clear
6:55 PM 45.1 °F - 39.0 °F 79% 30.21 in 10.0 mi Calm Calm - N/A   Clear
7:55 PM 41.4 °F - 37.9 °F 88% 30.21 in 10.0 mi Calm Calm - N/A   Clear
8:55 PM 41.2 °F - 39.0 °F 92% 30.21 in 10.0 mi Calm Calm - N/A   Clear
9:55 PM 40.3 °F - 39.9 °F 99% 30.19 in 10.0 mi Calm Calm - N/A   Clear
10:55 PM 39.0 °F - 38.8 °F 99% 30.19 in 10.0 mi Calm Calm - N/A   Clear
11:55 PM 39.0 °F - 38.8 °F 99% 30.19 in 10.0 mi Calm Calm - N/A   Clear